When you browse on this site, cookies collect data to enhance your experience and personalize the content and advertising you see.
Visit our Privacy Policy to learn more. By continuing to use the site, you agree to this use of cookies and data.
  • Em Portugal
  • Lista de países
  • Para 7 dias
  • Temperatura da água
  • Mapas de satélite
  • Mapa do tempo
  • Widgets de tempo
  • user-avatar
    Iniciar Sessão

    Previsão horária em Usakla

    Hoje, 23 Julho, Terça-feira

    Tempo Temperatura Precipitação Vento Pressão Humidade
    00:00 +13°C° 0 mm 2 m/s 742 mmHg 95%
    01:00 +13°C° 0 mm 2 m/s 742 mmHg 95%
    02:00 +13°C° 0 mm 2 m/s 742 mmHg 95%
    03:00 +13°C° 0 mm 2 m/s 743 mmHg 96%
    04:00 +12°C° 0 mm 3 m/s 743 mmHg 94%
    05:00 +13°C° 0 mm 3 m/s 743 mmHg 93%
    06:00 +14°C° 0 mm 3 m/s 743 mmHg 91%
    07:00 +16°C° 0 mm 3 m/s 743 mmHg 86%
    08:00 +18°C° 0 mm 3 m/s 744 mmHg 80%
    09:00 +19°C° 0 mm 4 m/s 744 mmHg 75%
    10:00 +20°C° 0 mm 4 m/s 744 mmHg 72%
    11:00 +21°C° 0 mm 4 m/s 744 mmHg 68%
    12:00 +21°C° 0 mm 4 m/s 744 mmHg 65%
    13:00 +22°C° 0.1 mm 4 m/s 744 mmHg 66%
    14:00 +22°C° 0.1 mm 4 m/s 744 mmHg 66%
    15:00 +22°C° 0.1 mm 5 m/s 744 mmHg 67%
    16:00 +21°C° 0 mm 4 m/s 744 mmHg 71%
    17:00 +21°C° 0 mm 3 m/s 744 mmHg 76%
    18:00 +20°C° 0 mm 3 m/s 744 mmHg 80%
    19:00 +19°C° 0 mm 2 m/s 744 mmHg 84%
    20:00 +18°C° 0 mm 2 m/s 744 mmHg 87%
    21:00 +16°C° 0 mm 2 m/s 744 mmHg 91%
    22:00 +16°C° 0 mm 1 m/s 745 mmHg 91%
    23:00 +15°C° 0 mm 1 m/s 745 mmHg 92%

    Amanhã, 24 Julho, Quarta-feira

    Tempo Temperatura Precipitação Vento Pressão Humidade
    00:00 +15°C° 0 mm 1 m/s 745 mmHg 93%
    01:00 +14°C° 0 mm 1 m/s 745 mmHg 93%
    02:00 +14°C° 0 mm 1 m/s 745 mmHg 93%
    03:00 +14°C° 0 mm 1 m/s 745 mmHg 94%
    04:00 +15°C° 0 mm 1 m/s 745 mmHg 92%
    05:00 +16°C° 0 mm 1 m/s 745 mmHg 90%
    06:00 +18°C° 0 mm 1 m/s 746 mmHg 88%
    07:00 +19°C° 0 mm 1 m/s 746 mmHg 83%
    08:00 +20°C° 0 mm 1 m/s 746 mmHg 77%
    09:00 +22°C° 0 mm 1 m/s 746 mmHg 71%
    10:00 +22°C° 0 mm 1 m/s 746 mmHg 69%
    11:00 +23°C° 0 mm 2 m/s 746 mmHg 67%
    12:00 +24°C° 0 mm 2 m/s 746 mmHg 64%
    13:00 +24°C° 0 mm 2 m/s 746 mmHg 65%
    14:00 +24°C° 0 mm 2 m/s 746 mmHg 65%
    15:00 +24°C° 0 mm 2 m/s 746 mmHg 66%
    16:00 +24°C° 0 mm 2 m/s 746 mmHg 69%
    17:00 +24°C° 0 mm 2 m/s 746 mmHg 73%
    18:00 +23°C° 0 mm 2 m/s 746 mmHg 76%
    19:00 +22°C° 0 mm 1 m/s 746 mmHg 80%
    20:00 +20°C° 0 mm 1 m/s 746 mmHg 84%
    21:00 +18°C° 0 mm 1 m/s 746 mmHg 88%
    22:00 +18°C° 0 mm 1 m/s 746 mmHg 89%
    23:00 +18°C° 0 mm 1 m/s 746 mmHg 89%

    Depois de amanhã, 25 Julho, Quinta-feira

    Tempo Temperatura Precipitação Vento Pressão Humidade
    00:00 +18°C° 0 mm 1 m/s 747 mmHg 90%
    01:00 +16°C° 0 mm 1 m/s 746 mmHg 90%
    02:00 +16°C° 0 mm 1 m/s 746 mmHg 91%
    03:00 +16°C° 0 mm 1 m/s 746 mmHg 91%
    04:00 +18°C° 0 mm 1 m/s 746 mmHg 90%
    05:00 +18°C° 0 mm 2 m/s 747 mmHg 88%
    06:00 +19°C° 0 mm 2 m/s 747 mmHg 87%
    07:00 +20°C° 0 mm 2 m/s 747 mmHg 81%
    08:00 +23°C° 0 mm 2 m/s 747 mmHg 75%
    09:00 +25°C° 0 mm 3 m/s 747 mmHg 70%
    10:00 +25°C° 0 mm 3 m/s 747 mmHg 66%
    11:00 +26°C° 0 mm 4 m/s 747 mmHg 62%
    12:00 +27°C° 0 mm 4 m/s 747 mmHg 58%
    13:00 +27°C° 0 mm 4 m/s 747 mmHg 59%
    14:00 +27°C° 0 mm 5 m/s 747 mmHg 60%
    15:00 +27°C° 0 mm 5 m/s 746 mmHg 61%
    16:00 +26°C° 0 mm 5 m/s 746 mmHg 67%
    17:00 +25°C° 0 mm 4 m/s 746 mmHg 73%
    18:00 +24°C° 0 mm 3 m/s 746 mmHg 79%
    19:00 +22°C° 0 mm 3 m/s 746 mmHg 81%
    20:00 +21°C° 0 mm 3 m/s 746 mmHg 84%
    21:00 +19°C° 0 mm 3 m/s 746 mmHg 87%
    22:00 +19°C° 0 mm 3 m/s 746 mmHg 87%
    23:00 +18°C° 0 mm 3 m/s 746 mmHg 88%

    26 Julho, Sexta-feira

    Tempo Temperatura Precipitação Vento Pressão Humidade
    00:00 +18°C° 0 mm 4 m/s 746 mmHg 88%
    01:00 +18°C° 0 mm 4 m/s 746 mmHg 89%
    02:00 +17°C° 0 mm 4 m/s 746 mmHg 90%
    03:00 +17°C° 0 mm 4 m/s 746 mmHg 91%
    04:00 +18°C° 0 mm 4 m/s 746 mmHg 89%
    05:00 +18°C° 0 mm 4 m/s 746 mmHg 87%
    06:00 +19°C° 0 mm 4 m/s 746 mmHg 85%
    07:00 +21°C° 0 mm 4 m/s 746 mmHg 82%
    08:00 +22°C° 0 mm 4 m/s 746 mmHg 79%
    09:00 +25°C° 0 mm 4 m/s 746 mmHg 76%
    10:00 +26°C° 0.5 mm 4 m/s 745 mmHg 72%
    11:00 +26°C° 0.5 mm 4 m/s 745 mmHg 69%
    12:00 +27°C° 0.5 mm 4 m/s 745 mmHg 66%
    13:00 +27°C° 0.4 mm 5 m/s 745 mmHg 67%
    14:00 +27°C° 0.4 mm 5 m/s 744 mmHg 68%
    15:00 +27°C° 0.4 mm 5 m/s 744 mmHg 69%
    16:00 +26°C° 0.5 mm 5 m/s 744 mmHg 73%
    17:00 +25°C° 0.5 mm 4 m/s 744 mmHg 77%
    18:00 +23°C° 0.5 mm 4 m/s 744 mmHg 81%
    19:00 +22°C° 0 mm 4 m/s 744 mmHg 83%
    20:00 +20°C° 0 mm 4 m/s 744 mmHg 85%
    21:00 +19°C° 0 mm 4 m/s 743 mmHg 87%
    22:00 +18°C° 0 mm 3 m/s 743 mmHg 87%
    23:00 +18°C° 0 mm 3 m/s 743 mmHg 86%

    27 Julho, Sábado

    Tempo Temperatura Precipitação Vento Pressão Humidade
    00:00 +17°C° 0 mm 3 m/s 743 mmHg 86%
    01:00 +17°C° 0 mm 3 m/s 743 mmHg 86%
    02:00 +17°C° 0 mm 3 m/s 743 mmHg 87%
    03:00 +17°C° 0 mm 2 m/s 742 mmHg 87%
    04:00 +17°C° 0 mm 2 m/s 742 mmHg 86%
    05:00 +18°C° 0 mm 2 m/s 742 mmHg 85%
    06:00 +19°C° 0 mm 2 m/s 742 mmHg 84%
    07:00 +20°C° 0 mm 2 m/s 742 mmHg 78%
    08:00 +23°C° 0 mm 2 m/s 741 mmHg 72%
    09:00 +24°C° 0 mm 2 m/s 741 mmHg 67%
    10:00 +25°C° 0 mm 2 m/s 741 mmHg 63%
    11:00 +26°C° 0 mm 2 m/s 741 mmHg 60%
    12:00 +26°C° 0 mm 2 m/s 740 mmHg 57%
    13:00 +27°C° 0.1 mm 2 m/s 740 mmHg 56%
    14:00 +27°C° 0.1 mm 1 m/s 739 mmHg 55%
    15:00 +27°C° 0.1 mm 1 m/s 739 mmHg 55%
    16:00 +26°C° 0.4 mm 1 m/s 738 mmHg 62%
    17:00 +25°C° 0.4 mm 1 m/s 738 mmHg 68%
    18:00 +24°C° 0.4 mm 1 m/s 737 mmHg 75%
    19:00 +22°C° 0.1 mm 1 m/s 737 mmHg 78%
    20:00 +21°C° 0.1 mm 1 m/s 737 mmHg 80%
    21:00 +17°C° 0.1 mm 0 m/s 736 mmHg 83%
    22:00 +17°C° 0 mm 0 m/s 736 mmHg 83%
    23:00 +19°C° 0 mm 1 m/s 735 mmHg 84%

    28 Julho, Domingo

    Tempo Temperatura Precipitação Vento Pressão Humidade
    00:00 +18°C° 0 mm 1 m/s 735 mmHg 85%
    01:00 +18°C° 0 mm 1 m/s 734 mmHg 86%
    02:00 +18°C° 0 mm 1 m/s 734 mmHg 88%
    03:00 +16°C° 0 mm 1 m/s 733 mmHg 89%
    04:00 +18°C° 0.1 mm 1 m/s 733 mmHg 89%
    05:00 +17°C° 0.1 mm 2 m/s 733 mmHg 89%
    06:00 +18°C° 0.1 mm 2 m/s 732 mmHg 89%
    07:00 +18°C° 0.4 mm 3 m/s 732 mmHg 88%
    08:00 +19°C° 0.4 mm 3 m/s 731 mmHg 86%
    09:00 +19°C° 0.4 mm 4 m/s 731 mmHg 85%
    10:00 +18°C° 0.9 mm 4 m/s 731 mmHg 88%
    11:00 +16°C° 0.9 mm 5 m/s 731 mmHg 91%
    12:00 +15°C° 0.9 mm 5 m/s 731 mmHg 94%
    13:00 +15°C° 0.4 mm 5 m/s 731 mmHg 93%
    14:00 +15°C° 0.4 mm 6 m/s 731 mmHg 91%
    15:00 +14°C° 0.4 mm 6 m/s 731 mmHg 89%
    16:00 +12°C° 0 mm 7 m/s 732 mmHg 88%
    17:00 +11°C° 0 mm 7 m/s 732 mmHg 87%
    18:00 +10°C° 0 mm 7 m/s 732 mmHg 86%
    19:00 +10°C° 0 mm 6 m/s 732 mmHg 86%
    20:00 +9°C° 0 mm 6 m/s 732 mmHg 86%
    21:00 +9°C° 0 mm 5 m/s 732 mmHg 85%
    22:00 +8°C° 0 mm 5 m/s 732 mmHg 84%
    23:00 +8°C° 0 mm 5 m/s 732 mmHg 83%
    Mostrar mais